CW2551 Weather Reports


Display with metric or nautical units.
time (UTC)temp
F
wind
direction
speed
MPH
gust
MPH
rain 1hr
in
rain 24hr
in
rain mn
in
humidity
%
barometer
mb
20260506071105 59 311 0.0 0.0 0.00 0.00 0.00 68 1015.2
20260506071022 59 311 0.0 0.0 0.00 0.00 0.00 68 1015.1
20260506070606 59 311 0.0 0.0 0.00 0.00 0.00 68 1015.1
20260506070106 59 311 0.0 0.0 0.00 0.00 0.00 67 1015.1
20260506062104 61 311 0.0 0.0 0.00 0.00 0.00 64 1014.8
20260506062023 61 311 0.0 0.0 0.00 0.00 0.00 64 1014.8
20260506061604 61 311 0.0 0.0 0.00 0.00 0.00 64 1014.8
20260506061104 61 311 0.0 0.0 0.00 0.00 0.00 63 1014.7
20260506060106 62 311 0.0 0.0 0.00 0.00 0.00 62 1014.6
20260506051106 64 313 0.0 0.0 0.00 0.00 0.00 59 1014.0
20260506051022 65 313 0.0 0.0 0.00 0.00 0.00 58 1014.0
20260506050604 65 313 0.0 0.0 0.00 0.00 0.00 58 1014.0
20260506045104 65 313 0.0 0.0 0.00 0.00 0.00 57 1013.8
20260506045022 66 313 0.0 0.0 0.00 0.00 0.00 57 1013.7
20260506044604 66 313 0.0 0.0 0.00 0.00 0.00 57 1013.7
20260506044022 66 313 0.0 0.0 0.00 0.00 0.00 56 1013.5
20260506043104 67 313 0.0 0.0 0.00 0.00 0.00 55 1013.4
20260506043023 67 313 0.0 0.0 0.00 0.00 0.00 54 1013.4
20260506042604 67 313 0.0 0.0 0.00 0.00 0.00 54 1013.4
20260506042107 67 313 0.0 0.0 0.00 0.00 0.00 54 1013.3
20260506042022 68 313 0.0 0.0 0.00 0.00 0.00 53 1013.2
20260506041604 68 313 0.0 0.0 0.00 0.00 0.00 53 1013.2
20260506041104 68 313 0.0 0.0 0.00 0.00 0.00 53 1013.0
20260506041022 69 313 0.0 0.0 0.00 0.00 0.00 53 1013.0
20260506040605 69 313 0.0 0.0 0.00 0.00 0.00 53 1013.0
20260506040022 69 313 0.0 0.0 0.00 0.00 0.00 52 1012.9
20260506035604 69 313 0.0 0.0 0.00 0.00 0.00 52 1012.9
20260506035104 69 313 0.0 0.0 0.00 0.00 0.00 51 1012.8
20260506035023 69 313 0.0 0.0 0.00 0.00 0.00 50 1012.7
20260506034604 69 313 0.0 0.0 0.00 0.00 0.00 50 1012.7
20260506034105 70 313 0.0 0.0 0.00 0.00 0.00 50 1012.5
20260506034024 70 314 0.0 0.0 0.00 0.00 0.00 49 1012.5
20260506033604 70 314 0.0 0.0 0.00 0.00 0.00 49 1012.5
20260506033106 70 315 0.0 0.0 0.00 0.00 0.00 48 1012.3
20260506033023 71 328 0.0 2.0 0.00 0.00 0.00 47 1012.2
20260506032105 71 333 0.0 0.0 0.00 0.00 0.00 47 1012.1
20260506032022 71 345 0.0 2.0 0.00 0.00 0.00 46 1012.1
20260506031105 72 346 0.0 0.0 0.00 0.00 0.00 45 1012.1
20260506031023 72 352 0.0 2.0 0.00 0.00 0.00 46 1012.0
20260506030604 72 352 0.0 2.0 0.00 0.00 0.00 46 1012.0
20260506030106 73 355 0.0 5.0 0.00 0.00 0.00 44 1011.8
20260506030023 73 306 0.0 0.0 0.00 0.00 0.00 43 1011.7
20260506025604 73 306 0.0 0.0 0.00 0.00 0.00 43 1011.7
20260506025104 74 306 0.0 0.0 0.00 0.00 0.00 42 1011.5
20260506025022 74 305 1.0 3.0 0.00 0.00 0.00 41 1011.4
20260506024605 74 305 1.0 3.0 0.00 0.00 0.00 41 1011.4
20260506024104 74 299 0.0 3.0 0.00 0.00 0.00 41 1011.3
20260506024022 75 306 1.0 3.0 0.00 0.00 0.00 40 1011.3
20260506023604 75 306 1.0 3.0 0.00 0.00 0.00 40 1011.3
20260506023105 75 2 3.0 8.0 0.00 0.00 0.00 39 1011.2
20260506022604 75 330 1.0 5.0 0.00 0.00 0.00 40 1011.2
20260506022104 76 331 1.0 3.0 0.00 0.00 0.00 39 1011.2
20260506022021 76 330 0.0 6.0 0.00 0.00 0.00 39 1011.1
20260506021604 76 330 0.0 6.0 0.00 0.00 0.00 39 1011.1
20260506021105 76 342 1.0 5.0 0.00 0.00 0.00 39 1011.1
20260506021022 76 327 1.0 6.0 0.00 0.00 0.00 40 1011.0
20260506020606 76 327 1.0 6.0 0.00 0.00 0.00 40 1011.0
20260506020104 77 271 1.0 3.0 0.00 0.00 0.00 41 1010.9
20260506020025 77 271 0.0 1.0 0.00 0.00 0.00 43 1010.9
20260506015022 77 251 0.0 1.0 0.00 0.00 0.00 44 1010.9
20260506014604 77 251 0.0 1.0 0.00 0.00 0.00 44 1010.9
20260506014104 77 337 0.0 3.0 0.00 0.00 0.00 42 1010.9
20260506012606 78 326 3.0 9.0 0.00 0.00 0.00 43 1010.9
20260506012022 78 314 0.0 8.0 0.00 0.00 0.00 42 1010.8
20260506011605 78 314 0.0 8.0 0.00 0.00 0.00 42 1010.8
20260506011104 78 338 3.0 5.0 0.00 0.00 0.00 42 1010.9
20260506011022 78 355 4.0 6.0 0.00 0.00 0.00 43 1010.8
20260506010604 78 355 4.0 6.0 0.00 0.00 0.00 43 1010.8
20260506010025 78 18 2.0 7.0 0.00 0.00 0.00 43 1010.7
20260506005606 78 18 2.0 7.0 0.00 0.00 0.00 43 1010.7
20260506005105 78 349 2.0 8.0 0.00 0.00 0.00 44 1010.7
20260506004605 78 351 2.0 5.0 0.00 0.00 0.00 43 1010.8
20260506004104 79 287 0.0 3.0 0.00 0.00 0.00 44 1010.8
20260506004022 78 247 0.0 3.0 0.00 0.00 0.00 43 1010.7
20260506003604 78 247 0.0 3.0 0.00 0.00 0.00 43 1010.7
20260506003104 79 248 1.0 3.0 0.00 0.00 0.00 43 1010.8
20260506003024 79 328 0.0 5.0 0.00 0.00 0.00 44 1010.7
20260506002604 79 328 0.0 5.0 0.00 0.00 0.00 44 1010.7
20260506002104 79 345 5.0 10.0 0.00 0.00 0.00 43 1010.8
20260506001604 78 347 2.0 5.0 0.00 0.00 0.00 45 1010.7
20260506001104 79 302 0.0 2.0 0.00 0.00 0.00 43 1010.7
20260506001023 79 278 0.0 0.0 0.00 0.00 0.00 46 1010.7
20260506000105 79 326 0.0 1.0 0.00 0.00 0.00 43 1010.7
20260505235605 78 326 0.0 3.0 0.00 0.00 0.00 44 1010.7
20260505235104 78 8 2.0 9.0 0.00 0.00 0.00 45 1010.7
20260505235021 78 0 0.0 3.0 0.00 0.00 0.00 45 1010.7
20260505234604 78 0 0.0 3.0 0.00 0.00 0.00 45 1010.7
20260505234104 79 0 0.0 0.0 0.00 0.00 0.00 47 1010.7
20260505234022 78 0 0.0 0.0 0.00 0.00 0.00 45 1010.7
20260505233604 78 0 0.0 0.0 0.00 0.00 0.00 45 1010.7
20260505233104 79 5 1.0 9.0 0.00 0.00 0.00 42 1010.8
20260505233027 78 37 0.0 6.0 0.00 0.00 0.00 44 1010.8
20260505232605 78 37 0.0 6.0 0.00 0.00 0.00 44 1010.8
20260505232104 78 325 0.0 3.0 0.00 0.00 0.00 45 1010.8
20260505231104 79 309 2.0 5.0 0.00 0.00 0.00 42 1010.9
20260505231022 78 282 0.0 3.0 0.00 0.00 0.00 44 1010.9
20260505230605 78 282 0.0 3.0 0.00 0.00 0.00 44 1010.9
20260505230104 79 326 0.0 3.0 0.00 0.00 0.00 40 1011.0
20260505230026 79 0 3.0 8.0 0.00 0.00 0.00 41 1011.1
20260505225604 79 0 3.0 8.0 0.00 0.00 0.00 41 1011.1
20260505225105 78 344 0.0 0.0 0.00 0.00 0.00 43 1011.2
20260505225021 78 342 0.0 2.0 0.00 0.00 0.00 41 1011.2
20260505224606 78 342 0.0 2.0 0.00 0.00 0.00 41 1011.2
20260505224022 77 204 0.0 0.0 0.00 0.00 0.00 44 1011.3
20260505223605 77 204 0.0 0.0 0.00 0.00 0.00 44 1011.3
20260505223104 78 202 0.0 0.0 0.00 0.00 0.00 43 1011.4
20260505223023 78 69 0.0 0.0 0.00 0.00 0.00 43 1011.5
20260505222104 78 69 0.0 3.0 0.00 0.00 0.00 42 1011.5
20260505222021 79 77 0.0 3.0 0.00 0.00 0.00 42 1011.6
20260505221604 79 77 0.0 3.0 0.00 0.00 0.00 42 1011.6
20260505221104 79 71 1.0 3.0 0.00 0.00 0.00 43 1011.6
20260505221023 77 56 1.0 8.0 0.00 0.00 0.00 45 1011.7
20260505220604 77 56 1.0 8.0 0.00 0.00 0.00 45 1011.7
20260505220024 75 280 0.0 3.0 0.00 0.00 0.00 46 1011.8
20260505215605 75 280 0.0 3.0 0.00 0.00 0.00 46 1011.8
20260505215105 76 290 0.0 3.0 0.00 0.00 0.00 46 1011.9
20260505215021 76 292 0.0 5.0 0.00 0.00 0.00 46 1011.9
20260505214104 77 316 3.0 8.0 0.00 0.00 0.00 47 1012.0
20260505214023 76 2 1.0 8.0 0.00 0.00 0.00 48 1012.0
20260505213605 76 2 1.0 8.0 0.00 0.00 0.00 48 1012.0
20260505213025 76 330 2.0 5.0 0.00 0.00 0.00 49 1012.0
20260505212604 76 330 2.0 5.0 0.00 0.00 0.00 49 1012.0
20260505212104 75 341 1.0 5.0 0.00 0.00 0.00 50 1012.1
20260505212023 75 321 0.0 3.0 0.00 0.00 0.00 49 1012.2
20260505211604 75 321 0.0 3.0 0.00 0.00 0.00 49 1012.2
20260505211104 75 354 0.0 5.0 0.00 0.00 0.00 48 1012.3
20260505211024 74 327 2.0 8.0 0.00 0.00 0.00 49 1012.3
20260505210604 74 327 2.0 8.0 0.00 0.00 0.00 49 1012.3
20260505210104 74 94 0.0 3.0 0.00 0.00 0.00 48 1012.4
20260505210023 74 62 2.0 3.0 0.00 0.00 0.00 47 1012.5
20260505205604 74 62 2.0 3.0 0.00 0.00 0.00 47 1012.5
20260505205104 75 32 0.0 5.0 0.00 0.00 0.00 46 1012.5
20260505205022 74 63 3.0 8.0 0.00 0.00 0.00 49 1012.7
20260505204605 74 63 3.0 8.0 0.00 0.00 0.00 49 1012.7
20260505204104 73 357 1.0 5.0 0.00 0.00 0.00 53 1012.6
20260505204023 72 280 0.0 3.0 0.00 0.00 0.00 52 1012.7
20260505203605 72 280 0.0 3.0 0.00 0.00 0.00 52 1012.7
20260505203104 73 277 1.0 6.0 0.00 0.00 0.00 52 1012.8
20260505203023 73 34 1.0 5.0 0.00 0.00 0.00 52 1012.8
20260505202104 73 33 2.0 5.0 0.00 0.00 0.00 52 1012.9
20260505202021 72 14 2.0 12.0 0.00 0.00 0.00 52 1012.9
20260505201604 72 14 2.0 12.0 0.00 0.00 0.00 52 1012.9
20260505201103 71 32 2.0 5.0 0.00 0.00 0.00 58 1013.0
20260505200604 71 37 2.0 9.0 0.00 0.00 0.00 55 1013.0
20260505200025 71 331 3.0 8.0 0.00 0.00 0.00 55 1013.2
20260505195604 71 331 3.0 8.0 0.00 0.00 0.00 55 1013.2
20260505195104 71 71 2.0 3.0 0.00 0.00 0.00 56 1013.1
20260505195021 70 14 2.0 7.0 0.00 0.00 0.00 60 1013.2
20260505194604 70 14 2.0 7.0 0.00 0.00 0.00 60 1013.2
20260505194021 69 346 2.0 9.0 0.00 0.00 0.00 60 1013.2
20260505193604 69 346 2.0 9.0 0.00 0.00 0.00 60 1013.2
20260505193104 69 13 0.0 2.0 0.00 0.00 0.00 58 1013.3
20260505193026 69 16 1.0 7.0 0.00 0.00 0.00 61 1013.3
20260505192604 69 16 1.0 7.0 0.00 0.00 0.00 61 1013.3
20260505192021 69 358 2.0 5.0 0.00 0.00 0.00 59 1013.3
20260505191604 69 358 2.0 5.0 0.00 0.00 0.00 59 1013.3
20260505191104 68 263 1.0 5.0 0.00 0.00 0.00 60 1013.3
20260505191023 68 291 2.0 3.0 0.00 0.00 0.00 60 1013.4
20260505190604 68 291 2.0 3.0 0.00 0.00 0.00 60 1013.4
20260505190104 67 5 3.0 6.0 0.00 0.00 0.00 60 1013.4
20260505190024 67 294 0.0 5.0 0.00 0.00 0.00 61 1013.4
20260505185605 67 294 0.0 5.0 0.00 0.00 0.00 61 1013.4
20260505184604 67 35 2.0 3.0 0.00 0.00 0.00 62 1013.5
20260505184104 67 5 3.0 5.0 0.00 0.00 0.00 62 1013.5
20260505184022 66 239 1.0 5.0 0.00 0.00 0.00 65 1013.6
20260505183604 66 239 1.0 5.0 0.00 0.00 0.00 65 1013.6
20260505183104 66 54 1.0 6.0 0.00 0.00 0.00 62 1013.6
20260505182104 66 10 2.0 3.0 0.00 0.00 0.00 64 1013.6
20260505182021 66 23 3.0 10.0 0.00 0.00 0.00 65 1013.6
20260505181104 65 333 0.0 3.0 0.00 0.00 0.00 65 1013.6
20260505181021 65 331 1.0 5.0 0.00 0.00 0.00 68 1013.7
20260505180104 64 348 1.0 6.0 0.00 0.00 0.00 67 1013.7
20260505180023 65 9 2.0 8.0 0.00 0.00 0.00 67 1013.7
20260505175604 65 9 2.0 8.0 0.00 0.00 0.00 67 1013.7
20260505175021 64 39 1.0 5.0 0.00 0.00 0.00 69 1013.6
20260505174604 64 39 1.0 5.0 0.00 0.00 0.00 69 1013.6
20260505174105 64 70 0.0 5.0 0.00 0.00 0.00 67 1013.6
20260505174025 63 244 0.0 0.0 0.00 0.00 0.00 69 1013.7
20260505173104 62 244 0.0 0.0 0.00 0.00 0.00 69 1013.7
20260505172104 61 238 0.0 0.0 0.00 0.00 0.00 73 1013.7
20260505172021 61 230 0.0 0.0 0.00 0.00 0.00 73 1013.8
20260505171604 61 230 0.0 0.0 0.00 0.00 0.00 73 1013.8
20260505171106 61 167 0.0 0.0 0.00 0.00 0.00 72 1013.9
20260505171022 60 153 0.0 0.0 0.00 0.00 0.00 74 1013.8
20260505170104 60 153 0.0 0.0 0.00 0.00 0.00 74 1013.9
20260505170023 60 144 0.0 2.0 0.00 0.00 0.00 74 1014.0
20260505165604 60 144 0.0 2.0 0.00 0.00 0.00 74 1014.0
20260505165104 60 92 0.0 0.0 0.00 0.00 0.00 74 1014.0
20260505165021 60 88 0.0 3.0 0.00 0.00 0.00 74 1014.1
20260505164106 59 97 0.0 0.0 0.00 0.00 0.00 75 1014.0
20260505164021 59 98 0.0 1.0 0.00 0.00 0.00 75 1014.1
20260505163604 59 98 0.0 1.0 0.00 0.00 0.00 75 1014.1
20260505162604 59 98 0.0 0.0 0.00 0.00 0.00 77 1014.0
20260505162105 59 98 0.0 0.0 0.00 0.00 0.00 77 1014.2
20260505161604 58 98 0.0 0.0 0.00 0.00 0.00 78 1014.2
20260505161106 58 98 0.0 0.0 0.00 0.00 0.00 78 1014.1
20260505161021 58 98 0.0 0.0 0.00 0.00 0.00 79 1014.2
20260505160604 58 98 0.0 0.0 0.00 0.00 0.00 79 1014.2
20260505160106 58 98 0.0 0.0 0.00 0.00 0.00 79 1014.2
20260505153105 57 98 0.0 0.0 0.00 0.00 0.00 82 1014.2
20260505153025 56 98 0.0 0.0 0.00 0.00 0.00 83 1014.1
20260505152604 56 98 0.0 0.0 0.00 0.00 0.00 83 1014.1
20260505152021 56 98 0.0 0.0 0.00 0.00 0.00 84 1014.0
20260505151605 56 98 0.0 0.0 0.00 0.00 0.00 84 1014.0
20260505151104 56 98 0.0 0.0 0.00 0.00 0.00 84 1014.0
20260505151023 56 98 0.0 0.0 0.00 0.00 0.00 85 1014.0
20260505150604 56 98 0.0 0.0 0.00 0.00 0.00 85 1014.0
20260505150106 56 98 0.0 0.0 0.00 0.00 0.00 85 1013.9
20260505140604 55 98 0.0 0.0 0.00 0.00 0.00 85 1013.5
20260505140104 55 98 0.0 0.0 0.00 0.00 0.00 85 1013.5
20260505130105 54 97 0.0 0.0 0.00 0.00 0.00 85 1013.0
20260505125023 54 98 0.0 0.0 0.00 0.00 0.00 85 1012.9
20260505124105 54 98 0.0 0.0 0.00 0.00 0.00 86 1012.9
20260505124022 54 97 0.0 0.0 0.00 0.00 0.00 86 1012.9
20260505123606 54 97 0.0 0.0 0.00 0.00 0.00 86 1012.9
20260505123104 54 98 0.0 0.0 0.00 0.00 0.00 86 1012.8
20260505123021 54 98 0.0 0.0 0.00 0.00 0.00 86 1012.8
20260505122604 54 98 0.0 0.0 0.00 0.00 0.00 86 1012.8
20260505122104 54 97 0.0 0.0 0.00 0.00 0.00 87 1012.8
20260505122021 54 98 0.0 0.0 0.00 0.00 0.00 87 1012.8
20260505121606 54 98 0.0 0.0 0.00 0.00 0.00 87 1012.8
20260505121104 54 97 0.0 0.0 0.00 0.00 0.00 87 1012.7
20260505120604 53 98 0.0 0.0 0.00 0.00 0.00 87 1012.7
20260505120106 53 98 0.0 0.0 0.00 0.00 0.00 88 1012.7
20260505120021 53 98 0.0 0.0 0.00 0.00 0.00 88 1012.5
20260505115604 53 98 0.0 0.0 0.00 0.00 0.00 88 1012.5
20260505115104 53 97 0.0 0.0 0.00 0.00 0.00 88 1012.5
20260505115023 53 98 0.0 0.0 0.00 0.00 0.00 88 1012.6
20260505114604 53 98 0.0 0.0 0.00 0.00 0.00 88 1012.6
20260505114104 53 97 0.0 0.0 0.00 0.00 0.00 88 1012.6
20260505114021 53 97 0.0 0.0 0.00 0.00 0.00 87 1012.6
20260505113021 53 97 0.0 0.0 0.00 0.00 0.00 87 1012.5
20260505112603 53 97 0.0 0.0 0.00 0.00 0.00 87 1012.5
20260505111604 52 98 0.0 0.0 0.00 0.00 0.00 87 1012.5
20260505111021 52 98 0.0 0.0 0.00 0.00 0.00 87 1012.4
20260505110604 52 98 0.0 0.0 0.00 0.00 0.00 87 1012.4
20260505110104 52 97 0.0 0.0 0.00 0.00 0.00 86 1012.3
20260505102105 52 97 0.0 0.0 0.00 0.00 0.00 85 1012.2
20260505102021 52 97 0.0 0.0 0.00 0.00 0.00 85 1012.2
20260505101606 52 97 0.0 0.0 0.00 0.00 0.00 85 1012.2
20260505101104 52 97 0.0 0.0 0.00 0.00 0.00 85 1012.1
20260505100604 53 97 0.0 0.0 0.00 0.00 0.00 85 1012.2
20260505100104 53 97 0.0 0.0 0.00 0.00 0.00 84 1012.1
20260505100022 53 97 0.0 0.0 0.00 0.00 0.00 84 1012.2
20260505095605 53 97 0.0 0.0 0.00 0.00 0.00 84 1012.2
20260505095105 53 97 0.0 0.0 0.00 0.00 0.00 84 1012.1
20260505095021 53 97 0.0 0.0 0.00 0.00 0.00 84 1012.2
20260505094605 53 97 0.0 0.0 0.00 0.00 0.00 84 1012.2
20260505094104 53 97 0.0 0.0 0.00 0.00 0.00 83 1012.2
20260505094021 53 97 0.0 0.0 0.00 0.00 0.00 83 1012.2
20260505093604 53 97 0.0 0.0 0.00 0.00 0.00 83 1012.2
20260505093104 54 98 0.0 0.0 0.00 0.00 0.00 83 1012.2
20260505093021 54 97 0.0 0.0 0.00 0.00 0.00 83 1012.2
20260505092604 54 97 0.0 0.0 0.00 0.00 0.00 83 1012.2
20260505092104 54 97 0.0 0.0 0.00 0.00 0.00 82 1012.1
20260505092021 54 97 0.0 0.0 0.00 0.00 0.00 82 1012.1
20260505091606 54 97 0.0 0.0 0.00 0.00 0.00 82 1012.1
20260505091104 54 98 0.0 0.0 0.00 0.00 0.00 82 1012.1
20260505091023 54 97 0.0 0.0 0.00 0.00 0.00 81 1012.0
20260505090606 54 97 0.0 0.0 0.00 0.00 0.00 81 1012.0
20260505090104 55 97 0.0 0.0 0.00 0.00 0.00 81 1012.1
20260505090021 55 97 0.0 0.0 0.00 0.00 0.00 81 1012.1
20260505085604 55 97 0.0 0.0 0.00 0.00 0.00 81 1012.1
20260505085105 55 97 0.0 0.0 0.00 0.00 0.00 80 1012.1
20260505085021 55 97 0.0 0.0 0.00 0.00 0.00 80 1012.0
20260505084021 56 97 0.0 0.0 0.00 0.00 0.00 79 1011.9
20260505083604 56 97 0.0 0.0 0.00 0.00 0.00 79 1011.9
20260505083104 56 97 0.0 0.0 0.00 0.00 0.00 79 1011.9
20260505083022 56 97 0.0 0.0 0.00 0.00 0.00 79 1011.9
20260505082604 56 97 0.0 0.0 0.00 0.00 0.00 79 1011.9
20260505082104 56 97 0.0 0.0 0.00 0.00 0.00 78 1012.0
20260505082021 57 97 0.0 0.0 0.00 0.00 0.00 78 1011.9
20260505081020 57 97 0.0 0.0 0.00 0.00 0.00 78 1011.9
20260505080604 57 97 0.0 0.0 0.00 0.00 0.00 78 1011.9
20260505080104 57 97 0.0 0.0 0.00 0.00 0.00 77 1011.8
20260505075604 57 97 0.0 0.0 0.00 0.00 0.00 77 1011.8
20260505075106 58 97 0.0 0.0 0.00 0.00 0.00 76 1011.8
20260505075021 58 98 0.0 0.0 0.00 0.00 0.00 76 1011.8
20260505074604 58 98 0.0 0.0 0.00 0.00 0.00 76 1011.8
20260505074106 58 97 0.0 0.0 0.00 0.00 0.00 76 1011.8
20260505074021 58 97 0.0 0.0 0.00 0.00 0.00 76 1011.7
20260505073604 58 97 0.0 0.0 0.00 0.00 0.00 76 1011.7
20260505073021 59 97 0.0 0.0 0.00 0.00 0.00 75 1011.6
20260505072604 59 97 0.0 0.0 0.00 0.00 0.00 75 1011.6
20260505072104 59 97 0.0 0.0 0.00 0.00 0.00 74 1011.6
20260505072021 59 97 0.0 0.0 0.00 0.00 0.00 74 1011.6